Location: West Cummington
(42.4920°N, 72.9680°W)
Time: 12:46:25
(UTC-04:00)

Cosmos 1703 Rocket - Visible Passes

Search period start: 25 October 2014 00:00
Search period end: 03 November 2014 23:00
Orbit: 608 x 634 km, 82.5° (Epoch: 24 October)

Date Brightness Start Highest point End Pass type
(mag) Time Alt. Az. Time Alt. Az. Time Alt. Az.
25 Oct 3.7 06:00:18 10° N 06:04:48 80° E 06:09:15 10° S visible
25 Oct 3.8 18:32:29 10° SSE 18:36:44 49° E 18:41:02 10° NNE visible
25 Oct 6.6 20:12:16 10° WSW 20:14:58 16° WNW 20:17:41 10° NNW visible
26 Oct 6.6 04:42:01 10° NE 04:44:33 15° ENE 04:47:04 10° ESE visible
26 Oct 3.7 06:18:27 10° NNW 06:22:50 53° W 06:27:09 10° S visible
26 Oct 3.6 18:50:19 10° S 18:54:45 87° W 18:59:14 10° N visible
27 Oct 5.8 04:59:07 10° NNE 05:02:53 26° ENE 05:06:37 10° SE visible
27 Oct 4.5 06:36:55 10° NNW 06:40:45 28° W 06:44:33 10° SSW visible
27 Oct 4.8 19:08:37 10° SSW 19:12:51 45° WNW 19:17:10 10° N visible
28 Oct 4.6 05:16:45 10° N 05:21:06 47° ENE 05:25:23 10° SSE visible
28 Oct 5.9 19:27:25 10° SW 19:31:05 25° WNW 19:34:47 10° NNW visible
29 Oct 3.5 05:34:42 10° N 05:39:12 90° ESE 05:43:39 10° S visible
29 Oct 6.7 19:47:03 10° W 19:49:25 14° WNW 19:51:48 10° NW visible
30 Oct 6.4 04:16:10 10° NNE 04:19:00 16° ENE 04:21:50 10° ESE visible
30 Oct 3.8 05:52:54 10° NNW 05:57:12 47° W 06:01:27 10° SSW visible
30 Oct 3.8 18:24:42 10° SSW 18:29:08 77° W 18:33:38 10° N visible
31 Oct 5.5 04:33:24 10° NNE 04:37:19 29° ENE 04:41:10 10° SE visible
31 Oct 4.6 06:11:26 10° NNW 06:15:06 25° W 06:18:43 10° SW visible
31 Oct 5.1 18:43:05 10° SSW 18:47:16 40° WNW 18:51:30 10° N visible
01 Nov 4.3 04:55:17 53° ENE 04:55:30 53° E 04:59:50 10° SSE visible
01 Nov 5.2 06:32:42 14° W 06:32:53 14° W 06:35:07 10° WSW visible
01 Nov 6.2 19:02:01 10° SW 19:05:30 22° WNW 19:09:02 10° NNW visible
02 Nov 5.0 04:16:05 26° S 04:16:05 26° S 04:18:00 10° S visible
02 Nov 6.7 18:21:54 10° W 18:23:52 13° WNW 18:25:50 10° NW visible
